Home   Weather   Himeji   Past weeks

Flag for Japan Past Weather in Himeji, Japan — Yesterday and Last 2 Weeks

Now
59 °F

Partly cloudy.


Feels Like: 56 °F
Forecast: 47 / 59 °F
Wind: 15 mph from West

Location: Kansai International Airport

Current Time: Dec 5, 2016 at 1:23:05 am

Latest Report: Dec 5, 2016 at 1:00 am


Visibility: N/A

Pressure: 29.95 "Hg

Humidity: 88%

Dew Point: 55 °F

Location of HimejiLocation

Past Weather in Himeji — Graph

°F

Himeji Temperature Yesterday

Maximum temperature yesterday: 61 °F (at 1:30 pm)
Minimum temperature yesterday: 48 °F (at 4:00 am)
Average temperature yesterday: 55 °F

High & Low Weather Summary for the Past Weeks

 TemperatureHumidityPressure
High70 °F (Nov 20, 9:30 am)100% (Nov 27, 4:00 am)30.45 "Hg (Nov 27, 4:00 am)
Low45 °F (Nov 24, 1:30 am)41% (Nov 25, 2:00 pm)29.86 "Hg (Nov 22, 2:00 am)
Average56 °F70%30.13 "Hg
* Reported Nov 20 12:00 am — Dec 5 12:00 am, Himeji, Weather by CustomWeather, © 2016

Note: Actual official high and low records may vary slightly from our data, if they occured in-between our weather recording intervals... More about our weather records

Advertising

Himeji Weather History for the Previous 24 Hours

Scroll right to see more
 ConditionsComfort  
Time TempWeatherWind HumidityBarometerVisibility
12:00 am
Mon, Dec 5
59 °FPartly cloudy.10 mph88%29.98 "HgN/A
11:30 pm
Sun, Dec 4
59 °FPartly cloudy.17 mph88%29.95 "HgN/A
11:00 pm59 °FPassing clouds.8 mph88%29.95 "HgN/A
10:30 pm57 °FPartly cloudy.6 mph94%29.95 "HgN/A
10:00 pm55 °FPartly cloudy.2 mph94%29.95 "HgN/A
9:30 pm55 °FPartly cloudy.1 mph94%29.95 "HgN/A
9:00 pm57 °FPartly cloudy.6 mph94%29.95 "Hg6 mi
8:30 pm57 °FSprinkles. Partly cloudy.9 mph94%29.95 "Hg4 mi
8:00 pm57 °FRain showers. Fog.10 mph94%29.95 "Hg4 mi
7:30 pm57 °FSprinkles. Fog.12 mph94%29.95 "Hg4 mi
7:00 pm57 °FSprinkles. Fog.13 mph94%29.98 "Hg4 mi
6:30 pm57 °FSprinkles. Fog.10 mph94%29.98 "Hg3 mi
6:00 pm55 °FSprinkles. Fog.14 mph94%29.98 "Hg3 mi
5:30 pm55 °FSprinkles. Fog.12 mph94%29.98 "Hg3 mi
5:00 pm55 °FSprinkles. Fog.10 mph94%30.01 "Hg2 mi
4:30 pm55 °FRain showers. Fog.12 mph94%30.04 "Hg2 mi
4:00 pm57 °FRain showers. Fog.12 mph82%30.04 "Hg2 mi
3:30 pm59 °FLight rain. Partly sunny.9 mph82%30.01 "HgN/A
3:00 pm59 °FLight rain. Broken clouds.7 mph77%30.04 "HgN/A
2:30 pm59 °FLight rain. More clouds than sun.6 mph77%30.01 "HgN/A
2:00 pm59 °FLight rain. Mostly cloudy.3 mph72%30.04 "HgN/A
1:30 pm61 °FLight rain. More clouds than sun.5 mph63%30.04 "HgN/A
1:00 pm59 °FMore clouds than sun.3 mph68%30.04 "HgN/A
12:30 pm59 °FPartly sunny.5 mph63%30.07 "HgN/A
11:30 am59 °FBroken clouds.6 mph63%30.09 "HgN/A
11:00 am57 °FPartly sunny.3 mph63%30.12 "HgN/A
10:30 am55 °FBroken clouds.5 mph67%30.15 "HgN/A
10:00 am54 °FPartly sunny.7 mph72%30.15 "HgN/A
9:30 am54 °FBroken clouds.6 mph72%30.15 "HgN/A
9:00 am52 °FScattered clouds.8 mph77%30.15 "HgN/A
8:30 am52 °FScattered clouds.8 mph77%30.15 "HgN/A
8:00 am50 °FScattered clouds.9 mph82%30.18 "HgN/A
7:30 am50 °FScattered clouds.9 mph76%30.18 "HgN/A
7:00 am50 °FScattered clouds.8 mph82%30.18 "HgN/A
6:30 am50 °FPartly cloudy.7 mph76%30.18 "HgN/A
6:00 am48 °FPassing clouds.9 mph76%30.18 "HgN/A
5:30 am48 °FPassing clouds.7 mph76%30.18 "HgN/A
5:00 am50 °FPassing clouds.7 mph82%30.18 "HgN/A
4:30 am50 °FPassing clouds.8 mph76%30.18 "HgN/A
4:00 am48 °FClear.6 mph82%30.18 "Hg10 mi
3:30 am50 °FClear.6 mph76%30.18 "Hg10 mi
3:00 am52 °FClear.5 mph77%30.18 "Hg10 mi
2:30 am52 °FPassing clouds.5 mph82%30.21 "HgN/A
2:00 am52 °FClear.5 mph77%30.21 "Hg10 mi
1:30 am54 °FClear.3 mph77%30.24 "Hg10 mi
1:00 am52 °FPassing clouds.3 mph82%30.21 "HgN/A
Weather by CustomWeather, © 2016

See weather overviewHow to use our weather pages